GW0254 Weather Reports


Display with metric or nautical units.
time (UTC)temp
F
wind
direction
speed
MPH
gust
MPH
rain 1hr
in
rain 24hr
in
rain mn
in
humidity
%
barometer
mb
20260905224600 61 194 3.0 12.0 0.00 0.00 0.00 47 1019.8
20260905223045 60 201 0.0 19.0 0.00 0.00 0.00 49 1019.8
20260905221553 62 166 1.0 10.0 0.00 0.00 0.00 46 1019.8
20260905220047 61 163 3.0 14.0 0.00 0.00 0.00 48 1019.9
20260905214546 62 178 3.0 13.0 0.00 0.00 0.00 46 1019.8
20260905213054 62 183 6.0 15.0 0.00 0.00 0.00 44 1019.8
20260905211545 61 220 3.0 10.0 0.00 0.00 0.00 45 1019.9
20260905210045 61 181 4.0 11.0 0.00 0.00 0.00 46 1020.0
20260905204555 60 251 3.0 10.0 0.00 0.00 0.00 47 1020.1
20260905203059 61 190 6.0 13.0 0.00 0.00 0.00 44 1020.2
20260905201547 61 189 3.0 13.0 0.00 0.00 0.00 48 1020.2
20260905200052 61 227 1.0 11.0 0.00 0.00 0.00 46 1020.1
20260905194542 60 205 3.0 11.0 0.00 0.00 0.00 48 1020.1
20260905193047 60 146 1.0 12.0 0.00 0.00 0.00 49 1020.1
20260905191546 59 201 3.0 10.0 0.00 0.00 0.00 51 1020.2
20260905190103 57 148 4.0 10.0 0.00 0.00 0.00 52 1020.2
20260905184601 56 167 2.0 7.0 0.00 0.00 0.00 54 1020.4
20260905183053 56 205 1.0 5.0 0.00 0.00 0.00 55 1020.3
20260905181548 56 180 3.0 7.0 0.00 0.00 0.00 56 1020.3
20260905180042 54 198 0.0 8.0 0.00 0.00 0.00 58 1020.2
20260905174551 55 194 4.0 8.0 0.00 0.00 0.00 57 1020.0
20260905173046 55 167 4.0 10.0 0.00 0.00 0.00 58 1020.2
20260905171545 53 167 1.0 5.0 0.00 0.00 0.00 59 1020.2
20260905170047 53 0 1.0 8.0 0.00 0.00 0.00 61 1020.2
20260905164557 52 0 1.0 6.0 0.00 0.00 0.00 63 1020.0
20260905163051 51 0 0.0 4.0 0.00 0.00 0.00 66 1020.0
20260905161546 51 0 0.0 1.0 0.00 0.00 0.00 67 1020.0
20260905160111 51 188 0.0 2.0 0.00 0.00 0.00 69 1020.1
20260905154550 50 0 0.0 3.0 0.00 0.00 0.00 70 1020.0
20260905153058 51 0 0.0 1.0 0.00 0.00 0.00 68 1019.9
20260905151548 52 0 0.0 2.0 0.00 0.00 0.00 67 1019.9
20260905150045 53 0 0.0 2.0 0.00 0.00 0.00 63 1019.9
20260905144551 52 0 0.0 3.0 0.00 0.01 0.00 66 1019.9
20260905143049 50 219 0.0 4.0 0.00 0.01 0.00 69 1019.7
20260905141553 48 0 0.0 2.0 0.00 0.01 0.00 73 1019.6
20260905140107 47 0 0.0 2.0 0.00 0.01 0.00 75 1019.6
20260905134552 47 0 0.0 3.0 0.00 0.04 0.00 77 1019.4
20260905133046 46 0 0.0 0.0 0.00 0.04 0.00 77 1019.2
20260905131557 47 0 0.0 0.0 0.00 0.04 0.00 77 1019.1
20260905130049 47 0 0.0 2.0 0.00 0.04 0.00 76 1019.0
20260905124548 47 0 0.0 2.0 0.00 0.04 0.00 75 1019.2
20260905123050 47 0 0.0 3.0 0.00 0.04 0.00 73 1019.3
20260905121545 47 0 0.0 3.0 0.00 0.04 0.00 72 1019.4
20260905120044 47 0 0.0 6.0 0.00 0.04 0.00 71 1019.5
20260905114554 47 0 0.0 6.0 0.00 0.04 0.00 71 1019.5
20260905113052 47 295 0.0 3.0 0.00 0.04 0.00 75 1019.6
20260905111605 47 0 0.0 3.0 0.00 0.04 0.00 74 1019.4
20260905110048 46 293 0.0 2.0 0.00 0.04 0.00 74 1019.6
20260905104558 46 293 0.0 3.0 0.00 0.04 0.00 76 1019.6
20260905103053 46 0 0.0 2.0 0.00 0.04 0.00 77 1019.6
20260905101549 46 0 0.0 2.0 0.00 0.04 0.00 76 1019.7
20260905100046 46 0 0.0 3.0 0.00 0.04 0.00 76 1019.8
20260905094544 46 0 0.0 2.0 0.00 0.04 0.00 76 1019.7
20260905093052 46 278 0.0 0.0 0.00 0.04 0.00 76 1019.6
20260905091545 46 0 0.0 2.0 0.00 0.04 0.00 75 1019.6
20260905090047 47 278 0.0 0.0 0.00 0.04 0.00 75 1019.7
20260905084543 46 0 0.0 3.0 0.00 0.04 0.00 76 1019.7
20260905083052 46 279 0.0 2.0 0.00 0.04 0.00 75 1019.8
20260905081545 46 0 0.0 2.0 0.00 0.04 0.00 75 1019.8
20260905080047 46 278 0.0 3.0 0.00 0.04 0.00 76 1019.9
20260905074551 45 277 0.0 3.0 0.00 0.04 0.00 78 1019.7
20260905073102 45 0 0.0 2.0 0.00 0.04 0.00 78 1019.8
20260905071547 45 277 0.0 2.0 0.00 0.04 0.00 78 1019.7
20260905070048 45 277 0.0 1.0 0.00 0.04 0.00 78 1019.6
20260905064546 45 0 0.0 3.0 0.00 0.04 0.04 78 1019.5
20260905063054 45 0 0.0 2.0 0.00 0.04 0.04 78 1019.5
20260905061548 45 0 0.0 0.0 0.00 0.04 0.04 78 1019.5
20260905060054 45 0 0.0 1.0 0.00 0.04 0.04 78 1019.5
20260905054547 45 0 0.0 1.0 0.00 0.04 0.04 79 1019.5
20260905053115 45 0 0.0 1.0 0.00 0.04 0.04 81 1019.6
20260905051555 45 277 0.0 0.0 0.00 0.04 0.04 80 1019.5
20260905050051 45 0 0.0 1.0 0.00 0.04 0.04 79 1019.3
20260905044548 45 0 0.0 1.0 0.00 0.04 0.04 79 1019.3
20260905043045 45 0 0.0 3.0 0.00 0.04 0.04 78 1019.4
20260905041546 46 0 0.0 2.0 0.00 0.04 0.04 78 1019.2
20260905040046 46 0 0.0 2.0 0.00 0.04 0.04 77 1019.1
20260905034547 46 0 0.0 2.0 0.00 0.04 0.04 77 1018.9
20260905033059 47 0 0.0 2.0 0.00 0.04 0.04 76 1018.7
20260905031550 47 0 0.0 2.0 0.00 0.04 0.04 76 1018.6
20260905030044 48 0 0.0 2.0 0.00 0.04 0.04 76 1018.5
20260905024557 48 0 0.0 2.0 0.00 0.04 0.04 74 1018.6
20260905023052 49 0 0.0 2.0 0.00 0.04 0.04 72 1018.5
20260905021546 50 0 0.0 3.0 0.00 0.04 0.04 70 1018.3
20260905020052 51 0 0.0 2.0 0.00 0.04 0.04 68 1018.3
20260905014559 51 0 0.0 2.0 0.00 0.04 0.04 67 1018.4
20260905013049 53 0 0.0 3.0 0.00 0.04 0.04 65 1018.3
20260905011549 53 0 0.0 3.0 0.00 0.04 0.04 66 1018.3
20260905010045 53 257 0.0 3.0 0.00 0.04 0.04 66 1018.2
20260905004554 53 0 0.0 6.0 0.00 0.04 0.04 66 1018.2
20260905003051 54 0 0.0 3.0 0.00 0.04 0.04 66 1018.0
20260905001546 53 0 0.0 5.0 0.00 0.04 0.04 68 1018.1
20260905000048 53 0 0.0 5.0 0.00 0.04 0.04 67 1018.1
20260904234558 54 284 1.0 8.0 0.00 0.04 0.04 65 1018.1
20260904233051 54 0 1.0 7.0 0.00 0.04 0.04 66 1017.8
20260904231555 54 0 2.0 14.0 0.00 0.04 0.04 67 1017.9
20260904230046 54 0 1.0 7.0 0.00 0.04 0.04 65 1017.7